FlightSource - Aviation Photo Database

World Wide Airport Lookup


Search by ICAO
Or
Search by City

FlightSource.ca - Aviation Photo Database - Tallahassee Regional Airport Information
Airport Identification
Name: Tallahassee Regional Airport
ICAO: KTLH
IATA: TLH
Airport Location
City: Tallahassee
Region: FL
Country: United States
Continent: North America
Latitude: 30.3965
Longitude: -84.3503
Airport Information
Type: Large Airport
Elevation: 81 Feet ASL
Flight Status: KTLH
More Info: KTLH
Airport Weather    
Metar: KTLH 191153Z 04005KT 10SM CLR 17/15 A3019 RMK AO2 SLP221 T01670150 10183 20167 53008
TAF:


Advertisement